DW1920 Weather Reports


Display with metric or nautical units.
time (UTC)temp
F
wind
direction
speed
MPH
gust
MPH
rain 1hr
in
rain 24hr
in
rain mn
in
humidity
%
barometer
mb
20260904093003 61 292 0.0 0.0 0.00 0.06 0.00 96 1007.7
20260904092002 61 292 0.0 0.0 0.00 0.06 0.00 96 1007.6
20260904091004 61 292 0.0 0.0 0.00 0.06 0.00 96 1007.7
20260904090003 61 292 0.0 3.0 0.00 0.06 0.00 96 1007.7
20260904085002 61 291 2.0 3.0 0.00 0.06 0.00 96 1007.7
20260904084003 61 289 2.0 7.0 0.00 0.06 0.00 96 1007.9
20260904083003 61 297 4.0 6.0 0.00 0.06 0.00 96 1007.9
20260904082003 61 286 0.0 0.0 0.00 0.06 0.00 96 1007.9
20260904081004 61 286 0.0 4.0 0.00 0.06 0.00 95 1007.6
20260904080002 61 273 2.0 7.0 0.00 0.06 0.00 95 1007.7
20260904075003 61 293 4.0 5.0 0.00 0.06 0.00 96 1007.8
20260904074003 61 304 3.0 4.0 0.00 0.06 0.00 95 1007.9
20260904073003 61 287 2.0 4.0 0.00 0.06 0.00 95 1008.0
20260904072003 61 268 2.0 4.0 0.00 0.06 0.00 95 1008.2
20260904071003 61 256 2.0 6.0 0.00 0.06 0.00 95 1008.3
20260904070003 61 261 3.0 6.0 0.00 0.06 0.00 96 1008.3
20260904065003 61 227 1.0 4.0 0.00 0.06 0.00 95 1008.4
20260904064002 61 312 0.0 2.0 0.00 0.06 0.00 95 1008.5
20260904063003 61 312 1.0 5.0 0.00 0.06 0.00 95 1008.5
20260904062024 62 312 3.0 5.0 0.00 0.06 0.00 95 1008.5
20260904061003 62 274 4.0 8.0 0.00 0.06 0.00 95 1008.8
20260904060003 62 268 4.0 7.0 0.00 0.06 0.00 95 1009.0
20260904055002 62 259 3.0 8.0 0.00 0.06 0.00 95 1009.2
20260904054003 62 254 3.0 7.0 0.00 0.06 0.00 95 1009.3
20260904053003 62 278 4.0 5.0 0.00 0.06 0.00 95 1009.1
20260904052003 62 268 1.0 6.0 0.00 0.06 0.00 95 1009.1
20260904051003 62 265 3.0 6.0 0.00 0.06 0.00 95 1009.4
20260904050002 63 252 3.0 6.0 0.00 0.06 0.00 95 1009.5
20260904045003 62 268 4.0 6.0 0.00 0.06 0.00 95 1009.7
20260904044024 62 320 3.0 4.0 0.00 0.06 0.00 95 1009.5
20260904043045 63 320 0.0 4.0 0.00 0.06 0.00 95 1009.5
20260904042002 63 320 1.0 4.0 0.00 0.06 0.00 95 1009.5
20260904040004 63 292 0.0 0.0 0.00 0.06 0.06 95 1009.9
20260904035003 62 292 0.0 2.0 0.00 0.06 0.06 95 1010.1
20260904034003 62 291 0.0 2.0 0.00 0.06 0.06 95 1010.0
20260904033003 62 291 1.0 2.0 0.00 0.06 0.06 95 1010.2
20260904032023 62 291 1.0 3.0 0.00 0.06 0.06 95 1010.2
20260904031003 62 352 0.0 3.0 0.00 0.06 0.06 95 1010.0
20260904030002 62 351 0.0 4.0 0.00 0.06 0.06 95 1010.1
20260904025003 62 340 3.0 6.0 0.00 0.06 0.06 95 1010.3
20260904024004 62 311 4.0 9.0 0.00 0.06 0.06 95 1010.2
20260904023003 62 310 3.0 5.0 0.00 0.06 0.06 95 1010.2
20260904022003 62 307 3.0 5.0 0.00 0.06 0.06 95 1010.0
20260904021003 62 293 3.0 5.0 0.00 0.06 0.06 95 1010.3
20260904020002 62 317 0.0 1.0 0.00 0.06 0.06 95 1010.3
20260904015003 62 316 1.0 6.0 0.00 0.06 0.06 95 1010.3
20260904014003 62 299 3.0 6.0 0.00 0.06 0.06 95 1010.5
20260904013024 62 316 4.0 7.0 0.00 0.06 0.06 95 1010.6
20260904012003 62 325 3.0 7.0 0.00 0.06 0.06 95 1010.4
20260904011002 62 341 3.0 8.0 0.00 0.06 0.06 95 1010.4
20260904010003 63 314 3.0 7.0 0.00 0.06 0.06 95 1010.5
20260904005002 63 335 4.0 8.0 0.00 0.06 0.06 95 1010.4
20260904004003 63 341 4.0 6.0 0.00 0.06 0.06 95 1010.2
20260904003003 63 327 3.0 5.0 0.00 0.06 0.06 95 1010.3
20260904002003 63 335 3.0 4.0 0.00 0.06 0.06 95 1010.4
20260904001003 63 325 3.0 7.0 0.00 0.06 0.06 95 1010.3
20260904000002 63 323 2.0 6.0 0.00 0.06 0.06 95 1010.5
20260903235003 63 315 1.0 6.0 0.00 0.06 0.06 95 1010.5
20260903234024 63 319 3.0 6.0 0.00 0.06 0.06 95 1010.6
20260903233002 63 317 3.0 5.0 0.00 0.06 0.06 95 1010.6
20260903232003 63 312 2.0 6.0 0.00 0.06 0.06 95 1010.6
20260903231002 63 5 0.0 2.0 0.00 0.06 0.06 95 1010.5
20260903230003 63 6 0.0 2.0 0.00 0.06 0.06 95 1010.5
20260903225024 63 5 1.0 3.0 0.00 0.06 0.06 95 1010.6
20260903224002 63 5 1.0 4.0 0.00 0.06 0.06 95 1010.6
20260903223003 63 18 2.0 6.0 0.00 0.06 0.06 95 1010.6
20260903222003 63 26 1.0 5.0 0.00 0.06 0.06 95 1010.6
20260903221003 62 13 2.0 5.0 0.00 0.06 0.06 96 1010.7
20260903220002 62 20 4.0 8.0 0.00 0.06 0.06 95 1010.7
20260903215003 62 15 6.0 10.0 0.00 0.06 0.06 95 1010.7
20260903214003 62 21 5.0 11.0 0.00 0.06 0.06 95 1010.6
20260903213003 62 31 7.0 12.0 0.00 0.06 0.06 95 1010.6
20260903212003 62 38 7.0 10.0 0.00 0.06 0.06 95 1010.6
20260903211002 62 37 8.0 12.0 0.00 0.06 0.06 95 1010.7
20260903210003 62 33 7.0 11.0 0.00 0.06 0.06 95 1010.8
20260903205003 62 38 8.0 12.0 0.00 0.06 0.06 95 1010.8
20260903204003 62 39 8.0 12.0 0.00 0.06 0.06 95 1010.9
20260903203003 61 44 9.0 12.0 0.00 0.06 0.06 95 1011.0
20260903202003 62 37 9.0 12.0 0.00 0.06 0.06 95 1011.0
20260903201003 61 40 9.0 12.0 0.00 0.06 0.06 95 1010.9
20260903200003 61 36 8.0 11.0 0.00 0.06 0.06 95 1011.2
20260903195003 61 42 9.0 10.0 0.00 0.06 0.06 95 1011.4
20260903194024 62 54 8.0 10.0 0.00 0.06 0.06 95 1011.6
20260903193003 61 49 6.0 9.0 0.00 0.06 0.06 95 1011.8
20260903192003 62 54 6.0 8.0 0.00 0.06 0.06 95 1012.0
20260903191024 61 45 6.0 9.0 0.00 0.06 0.06 95 1012.1
20260903190003 61 51 6.0 9.0 0.00 0.06 0.06 95 1012.2
20260903185003 61 46 7.0 9.0 0.00 0.06 0.06 94 1012.4
20260903184003 61 44 7.0 9.0 0.00 0.06 0.06 94 1012.3
20260903183002 62 52 7.0 9.0 0.00 0.06 0.06 95 1012.4
20260903182003 62 48 6.0 8.0 0.00 0.06 0.06 94 1012.5
20260903181003 62 61 7.0 8.0 0.00 0.06 0.06 94 1012.7
20260903180002 62 48 5.0 9.0 0.00 0.06 0.06 94 1012.6
20260903175024 62 72 8.0 9.0 0.00 0.06 0.06 94 1012.5
20260903174002 62 71 7.0 9.0 0.00 0.06 0.06 94 1012.7
20260903173024 63 85 6.0 9.0 0.00 0.06 0.06 94 1012.8
20260903172003 63 90 8.0 9.0 0.00 0.06 0.06 94 1012.7
20260903171004 63 106 7.0 9.0 0.00 0.06 0.06 94 1012.9
20260903170003 63 113 7.0 9.0 0.00 0.06 0.06 95 1012.9
20260903165003 63 122 7.0 9.0 0.00 0.06 0.06 95 1013.2
20260903164024 63 103 5.0 9.0 0.00 0.06 0.06 95 1013.2
20260903163003 62 75 7.0 9.0 0.00 0.06 0.06 95 1013.3
20260903162024 62 65 7.0 9.0 0.00 0.06 0.06 95 1013.4
20260903161003 62 67 8.0 9.0 0.00 0.06 0.06 95 1013.4
20260903160003 62 69 6.0 7.0 0.00 0.06 0.06 94 1013.8
20260903155003 62 59 5.0 7.0 0.00 0.06 0.06 94 1014.1
20260903154002 62 66 5.0 7.0 0.00 0.06 0.06 94 1014.2
20260903153003 62 92 4.0 5.0 0.00 0.06 0.06 94 1014.3
20260903152003 62 119 2.0 4.0 0.00 0.06 0.06 94 1014.4
20260903151003 62 117 3.0 4.0 0.00 0.06 0.06 95 1014.4
20260903150024 62 125 3.0 4.0 0.01 0.06 0.06 94 1014.5
20260903145003 62 152 2.0 3.0 0.01 0.06 0.06 95 1014.6
20260903144023 62 152 2.0 3.0 0.01 0.06 0.06 95 1014.5
20260903143003 61 172 2.0 2.0 0.01 0.06 0.06 95 1014.7
20260903142002 61 174 1.0 3.0 0.01 0.06 0.06 94 1015.0
20260903141004 61 174 1.0 3.0 0.00 0.05 0.05 94 1014.9
20260903140002 61 174 2.0 4.0 0.02 0.05 0.05 94 1014.8
20260903135003 61 197 4.0 7.0 0.02 0.05 0.05 94 1015.0
20260903134024 61 205 8.0 10.0 0.02 0.05 0.05 94 1015.0
20260903133002 62 216 5.0 9.0 0.02 0.05 0.05 94 1015.2
20260903132004 62 224 5.0 13.0 0.01 0.04 0.04 94 1015.5
20260903131024 62 222 7.0 12.0 0.00 0.03 0.03 94 1015.4
20260903130002 62 204 8.0 14.0 0.00 0.03 0.03 94 1015.3
20260903125024 61 198 11.0 16.0 0.00 0.03 0.03 94 1015.2
20260903124003 61 183 15.0 17.0 0.00 0.03 0.03 94 1014.9
20260903123002 62 159 10.0 12.0 0.00 0.03 0.03 94 1014.9
20260903122003 62 159 8.0 12.0 0.00 0.03 0.03 94 1015.0
20260903121003 62 132 7.0 10.0 0.00 0.03 0.03 94 1014.9
20260903120002 62 142 9.0 10.0 0.03 0.03 0.03 94 1015.1
20260903115003 62 132 8.0 13.0 0.03 0.03 0.03 94 1015.4
20260903114003 62 128 5.0 10.0 0.03 0.03 0.03 94 1015.4
20260903113002 62 79 4.0 7.0 0.02 0.02 0.02 94 1015.4
20260903112024 62 53 4.0 9.0 0.02 0.02 0.02 94 1015.5
20260903111002 62 39 5.0 8.0 0.00 0.00 0.00 94 1015.5
20260903110003 62 50 5.0 7.0 0.00 0.00 0.00 94 1015.7
20260903105002 62 61 4.0 7.0 0.00 0.00 0.00 94 1015.6
20260903104024 62 76 5.0 6.0 0.00 0.00 0.00 94 1015.6
20260903103003 62 70 4.0 6.0 0.00 0.00 0.00 94 1015.8
20260903102003 62 64 4.0 6.0 0.00 0.00 0.00 94 1015.7
20260903101003 62 48 2.0 5.0 0.00 0.00 0.00 94 1015.8
20260903100002 62 65 3.0 6.0 0.00 0.00 0.00 94 1015.6
20260903095003 62 24 4.0 5.0 0.00 0.00 0.00 94 1015.6
20260903094024 62 52 4.0 7.0 0.00 0.00 0.00 94 1015.4